Voltar ao catálogo

SL-16 DEB

AtivoLEO
NORAD 43374·DEBRIS·🇷🇺 Russia

Lançado Jun 29, 2007 de Baikonur Cosmodrome

Loading…

Próximas Passagens (próximas 24 horas)

TLE

AtualizadoSource: Space-Track

Época: Sep 13, 2026, 03:53 UTC

1 43374U 07029R   26256.16203240  .00002250  00000-0  15790-2 0  9991
2 43374  71.0656  77.8796 0185727 132.7024 228.9898 13.91325354644210

Acompanhe SL-16 DEB em tempo real com AllMySat

Download on the App Store